Location: Unspecified
(34.4500°N, 0.0000°E)
Time: 17:56:16
(UTC+00:00)

Envisat - Pass Details

Date: 06 March 2021
Orbit: 764 x 766 km, 98.1° (Epoch: 21 April)

Event Time Altitude Azimuth Distance (km) Brightness Sun altitude
Rises 04:50:17 0° 25° (NNE) 3,236 6.7 -19.8°
Reaches altitude 10° 04:52:53 10° 36° (NE) 2,306 6.1 -19.3°
Maximum altitude 04:57:17 29° 96° (E) 1,366 5.0 -18.4°
Drops below altitude 10° 05:01:40 10° 157° (SSE) 2,292 5.7 -17.5°
Sets 05:04:13 0° 168° (SSE) 3,213 6.3 -17.0°
